Location: Alipur
(30.4776°N, 76.0576°E)
Time: 05:08:06
(UTC+00:00)

Daily predictions for brighter satellites

Satellite Brightness Start Highest point End
(mag) Time Altitude Azimuth Time Altitude Azimuth Time Altitude Azimuth
deb Chang Zheng 4 4.0 00:01:06 10° N 00:05:02 38° WNW 00:08:58 10° SW
FENGYUN 3A 4.0 00:00:23 10° N 00:05:28 42° WNW 00:10:32 10° SW
Meteor PRIRODA 3.7 00:02:53 10° NNE 00:06:32 78° ESE 00:10:11 10° S
ARGOS Delta rocket 4.1 00:02:06 10° N 00:07:31 70° WNW 00:12:57 10° SSW
CZ-4B R/B 4.2 00:03:46 10° N 00:07:41 41° WNW 00:11:24 10° SW
Cosmos 1892 Rocket 3.4 00:03:53 10° S 00:08:11 77° W 00:12:32 10° N
Cosmos 2251 Rocket 3.7 00:06:46 10° SSW 00:11:58 50° WNW 00:17:10 10° N
Cosmos 1980 Rocket 3.6 00:07:36 10° N 00:12:50 39° ENE 00:18:02 10° SE
Cosmos 2084 3.5 00:10:16 10° SW 00:14:26 54° WNW 00:18:43 10° NNE
USA 142 4.4 00:08:51 10° WSW 00:15:42 52° S 00:18:59 10° E
CZ-4B R/B 2.1 00:13:40 10° SSW 00:16:51 34° W 00:20:02 10° NNW
Cosmos 44 Rocket 3.4 00:13:11 10° NW 00:18:18 64° WSW 00:23:25 10° SSE
SKYMED 2 3.6 00:17:34 10° SSE 00:21:54 88° ENE 00:26:15 10° N
Cosmos 1092 Rocket 4.2 00:16:57 10° SSW 00:22:50 48° W 00:28:48 10° N
Cosmos 2360 4.4 00:17:18 10° NNW 00:22:59 78° ENE 00:28:39 10° SSE
OE (NEXTSAT) 4.3 00:21:13 10° WSW 00:24:40 75° NW 00:28:09 10° NE
Cosmos 614 Rocket 3.9 00:19:43 10° SSW 00:24:53 82° WNW 00:30:02 10° NNE
ASTRO F (AKARI) 4.4 00:21:32 10° N 00:24:55 56° WNW 00:28:09 10° SSW
DELTA 2 R/B (1) 3.6 00:20:10 12° WNW 00:25:28 88° NNE 00:31:06 10° ESE
Cosmos 1400 Rocket 2.8 00:21:49 10° N 00:25:44 81° E 00:29:35 10° S
H-2A R/B 3.7 00:21:42 10° NNE 00:25:54 49° E 00:29:56 10° S
ERS-2 3.7 00:31:13 10° SW 00:33:29 16° W 00:35:46 10° WNW
Cosmos 1626 Rocket 4.2 00:29:37 10° S 00:33:59 62° E 00:38:24 10° NNE
CZ-3 R/B 2.7 00:13:58 11° W 00:35:45 80° S 00:41:33 10° E
Okean O Rocket 4.0 00:32:51 10° NE 00:36:40 29° E 00:40:27 10° SSE
YAOGAN 6 4.0 00:34:37 10° NNE 00:38:09 45° E 00:41:38 10° S
Cosmos 2278 4.0 00:33:14 10° NNW 00:38:52 73° ENE 00:44:28 10° SSE
Gblst 52 Del rocket 4.3 00:37:18 10° SW 00:42:50 68° NW 00:48:59 10° NE
Aureole 3 3.9 00:39:29 10° NNW 00:43:57 70° W 00:49:39 10° S
Cosmos 1833 Rocket 4.4 00:41:40 10° W 00:43:57 12° WNW 00:46:15 10° NNW
Cosmos 2098 Rocket 4.2 00:37:15 10° S 00:44:05 82° E 00:49:43 10° N
ALOS 3.9 00:41:55 10° NW 00:44:14 14° WNW 00:46:34 10° W
Meteor 2-19 Rocket 4.5 00:40:37 10° S 00:46:42 82° W 00:52:48 10° N
ATLAS 3B R/B 3.7 00:42:05 10° W 00:47:01 22° NW 00:52:01 10° N
